Location: El Barbasco
(9.9682°N, 67.7441°W)
Time: 12:40:57
(UTC+00:00)

Cosmos 2056 Rocket - Pass Details

Date: 05 August 2024
Orbit: 740 x 797 km, 74.0° (Epoch: 17 September)

Event Time Altitude Azimuth Distance (km) Brightness Sun altitude
Rises 23:33:01 0° 173° (S) 3,259 6.5 -10.3°
Reaches altitude 10° 23:35:39 10° 163° (SSE) 2,322 5.7 -10.9°
Maximum altitude 23:40:17 32° 101° (E) 1,309 4.2 -12.0°
Drops below altitude 10° 23:44:50 10° 40° (NE) 2,286 5.8 -13.1°
Sets 23:47:24 0° 30° (NNE) 3,202 6.6 -13.7°
